Location: *
(51.8167°N, 12.5000°E)
Time: 06:05:02
(UTC+00:00)

Lacrosse 5 - Pass Details

Date: 16 September 2019
Orbit: 715 x 724 km, 57.0° (Epoch: 16 October)

Event Time Altitude Azimuth Distance (km) Brightness Sun altitude
Exits shadow 23:44:13 19° 58° (ENE) 1,677 4.1 -35.1°
Drops below altitude 10° 23:45:38 10° 61° (ENE) 2,204 4.8 -35.0°
Sets 23:48:02 0° 64° (ENE) 3,127 5.6 -35.0°
